Time,TemperatureF,DewpointF,PressureIn,WindDirection,WindDirectionDegrees,WindSpeedMPH,WindSpeedGustMPH,Humidity,HourlyPrecipIn,Conditions,Clouds,dailyrainin,SoftwareType,DateUTC
2013-01-30 00:05:00,57.3,54.0,29.35,South,180,8.0,-999.0,89,-99.99,,,0.98,weatherlink.com 1.10,2013-01-30 05:05:00,
2013-01-30 00:20:00,57.7,54.0,29.35,SSE,165,16.0,-999.0,88,-99.99,,,0.00,weatherlink.com 1.10,2013-01-30 05:20:00,
2013-01-30 00:35:00,57.9,54.0,29.33,SW,219,5.0,-999.0,88,-99.99,,,0.00,weatherlink.com 1.10,2013-01-30 05:35:00,
2013-01-30 00:50:00,57.4,54.0,29.31,SE,142,7.0,-999.0,87,-99.99,,,0.00,weatherlink.com 1.10,2013-01-30 05:50:00,
2013-01-30 01:05:00,56.3,53.0,29.30,SSW,194,4.0,-999.0,89,-99.99,,,0.00,weatherlink.com 1.10,2013-01-30 06:05:00,
2013-01-30 01:20:00,54.9,52.0,29.28,SSE,163,7.0,-999.0,91,-99.99,,,0.01,weatherlink.com 1.10,2013-01-30 06:20:00,
2013-01-30 01:35:00,54.2,52.0,29.26,South,174,3.0,-999.0,92,-99.99,,,0.01,weatherlink.com 1.10,2013-01-30 06:35:00,
2013-01-30 01:50:00,54.0,52.0,29.25,South,174,3.0,-999.0,94,-99.99,,,0.01,weatherlink.com 1.10,2013-01-30 06:50:00,
2013-01-30 02:05:00,54.3,53.0,29.23,SSE,155,5.0,-999.0,94,-99.99,,,0.03,weatherlink.com 1.10,2013-01-30 07:05:00,
2013-01-30 02:20:00,54.9,53.0,29.22,SW,214,5.0,-999.0,94,-99.99,,,0.04,weatherlink.com 1.10,2013-01-30 07:20:00,
2013-01-30 02:35:00,55.5,54.0,29.20,South,177,9.0,-999.0,94,-99.99,,,0.05,weatherlink.com 1.10,2013-01-30 07:35:00,
2013-01-30 02:50:00,56.1,54.0,29.18,South,184,6.0,-999.0,94,-99.99,,,0.05,weatherlink.com 1.10,2013-01-30 07:50:00,
2013-01-30 03:05:00,57.6,56.0,29.18,SW,225,5.0,-999.0,94,-99.99,,,0.05,weatherlink.com 1.10,2013-01-30 08:05:00,
2013-01-30 03:20:00,58.5,56.0,29.18,SW,233,13.0,-999.0,92,-99.99,,,0.08,weatherlink.com 1.10,2013-01-30 08:20:00,
2013-01-30 03:35:00,59.0,56.0,29.16,SW,221,13.0,-999.0,91,-99.99,,,0.08,weatherlink.com 1.10,2013-01-30 08:35:00,
2013-01-30 03:50:00,57.7,55.0,29.15,WNW,287,8.0,-999.0,92,-99.99,,,0.21,weatherlink.com 1.10,2013-01-30 08:50:00,
2013-01-30 04:05:00,54.8,53.0,29.18,WNW,295,5.0,-999.0,92,-99.99,,,0.23,weatherlink.com 1.10,2013-01-30 09:05:00,
2013-01-30 04:20:00,53.0,51.0,29.20,WNW,292,1.0,-999.0,92,-99.99,,,0.24,weatherlink.com 1.10,2013-01-30 09:20:00,
2013-01-30 04:35:00,52.1,50.0,29.20,West,274,0.0,-999.0,93,-99.99,,,0.24,weatherlink.com 1.10,2013-01-30 09:35:00,
2013-01-30 04:50:00,51.7,50.0,29.18,WSW,257,0.0,-999.0,93,-99.99,,,0.25,weatherlink.com 1.10,2013-01-30 09:50:00,
2013-01-30 05:05:00,51.4,50.0,29.18,WNW,303,0.0,-999.0,93,-99.99,,,0.25,weatherlink.com 1.10,2013-01-30 10:05:00,
2013-01-30 05:20:00,50.9,49.0,29.20,WNW,303,0.0,-999.0,94,-99.99,,,0.27,weatherlink.com 1.10,2013-01-30 10:20:00,
2013-01-30 05:35:00,50.8,49.0,29.20,WNW,299,0.0,-999.0,94,-99.99,,,0.28,weatherlink.com 1.10,2013-01-30 10:35:00,
2013-01-30 05:50:00,50.6,49.0,29.22,WNW,286,0.0,-999.0,95,-99.99,,,0.29,weatherlink.com 1.10,2013-01-30 10:50:00,
2013-01-30 06:05:00,50.5,49.0,29.23,West,278,0.0,-999.0,95,-99.99,,,0.30,weatherlink.com 1.10,2013-01-30 11:05:00,
2013-01-30 06:20:00,50.2,49.0,29.23,West,278,0.0,-999.0,95,-99.99,,,0.32,weatherlink.com 1.10,2013-01-30 11:20:00,
2013-01-30 06:35:00,49.8,49.0,29.22,West,278,0.0,-999.0,95,-99.99,,,0.34,weatherlink.com 1.10,2013-01-30 11:35:00,
2013-01-30 06:50:00,49.5,48.0,29.22,West,278,0.0,-999.0,96,-99.99,,,0.36,weatherlink.com 1.10,2013-01-30 11:50:00,
2013-01-30 07:05:00,48.9,48.0,29.20,West,278,0.0,-999.0,95,-99.99,,,0.37,weatherlink.com 1.10,2013-01-30 12:05:00,
2013-01-30 07:20:00,48.4,47.0,29.20,West,278,0.0,-999.0,96,-99.99,,,0.38,weatherlink.com 1.10,2013-01-30 12:20:00,
2013-01-30 07:35:00,48.4,47.0,29.20,West,270,0.0,-999.0,96,-99.99,,,0.38,weatherlink.com 1.10,2013-01-30 12:35:00,
2013-01-30 07:50:00,48.3,47.0,29.18,SSE,162,0.0,-999.0,96,-99.99,,,0.38,weatherlink.com 1.10,2013-01-30 12:50:00,
2013-01-30 08:05:00,48.6,48.0,29.18,South,174,0.0,-999.0,96,-99.99,,,0.38,weatherlink.com 1.10,2013-01-30 13:05:00,
2013-01-30 08:20:00,48.4,47.0,29.15,South,174,0.0,-999.0,96,-99.99,,,0.38,weatherlink.com 1.10,2013-01-30 13:20:00,
2013-01-30 08:35:00,48.4,48.0,29.15,South,170,0.0,-999.0,97,-99.99,,,0.38,weatherlink.com 1.10,2013-01-30 13:35:00,
2013-01-30 08:50:00,48.4,48.0,29.14,South,176,0.0,-999.0,97,-99.99,,,0.38,weatherlink.com 1.10,2013-01-30 13:50:00,
2013-01-30 09:05:00,48.6,48.0,29.17,WSW,240,0.0,-999.0,97,-99.99,,,0.38,weatherlink.com 1.10,2013-01-30 14:05:00,
2013-01-30 09:20:00,48.3,48.0,29.14,WSW,240,0.0,-999.0,97,-99.99,,,0.38,weatherlink.com 1.10,2013-01-30 14:20:00,
2013-01-30 09:35:00,48.6,48.0,29.15,WSW,240,0.0,-999.0,97,-99.99,,,0.38,weatherlink.com 1.10,2013-01-30 14:35:00,
2013-01-30 09:50:00,49.0,48.0,29.14,SW,229,0.0,-999.0,97,-99.99,,,0.38,weatherlink.com 1.10,2013-01-30 14:50:00,
2013-01-30 10:05:00,49.0,48.0,29.19,SW,230,0.0,-999.0,97,-99.99,,,0.38,weatherlink.com 1.10,2013-01-30 15:05:00,
2013-01-30 10:20:00,49.2,48.0,29.18,SW,226,0.0,-999.0,97,-99.99,,,0.38,weatherlink.com 1.10,2013-01-30 15:20:00,
2013-01-30 10:35:00,49.5,49.0,29.20,SW,233,0.0,-999.0,97,-99.99,,,0.38,weatherlink.com 1.10,2013-01-30 15:35:00,
2013-01-30 10:50:00,49.6,49.0,29.19,WSW,241,1.0,-999.0,97,-99.99,,,0.38,weatherlink.com 1.10,2013-01-30 15:50:00,
2013-01-30 11:05:00,49.6,49.0,29.20,WSW,243,0.0,-999.0,97,-99.99,,,0.38,weatherlink.com 1.10,2013-01-30 16:05:00,
2013-01-30 11:20:00,49.6,49.0,29.19,South,170,0.0,-999.0,97,-99.99,,,0.38,weatherlink.com 1.10,2013-01-30 16:20:00,
2013-01-30 11:36:00,50.1,49.0,29.18,South,175,0.0,-999.0,97,-99.99,,,0.38,weatherlink.com 1.10,2013-01-30 16:36:00,
2013-01-30 11:54:00,50.5,50.0,29.13,SW,235,3.0,-999.0,97,-99.99,,,0.38,weatherlink.com 1.10,2013-01-30 16:54:00,
2013-01-30 12:04:00,50.6,50.0,29.13,WSW,240,0.0,-999.0,97,-99.99,,,0.38,weatherlink.com 1.10,2013-01-30 17:04:00,
2013-01-30 12:20:00,50.9,50.0,29.15,WSW,251,5.0,-999.0,97,-99.99,,,0.38,weatherlink.com 1.10,2013-01-30 17:20:00,
2013-01-30 12:36:00,51.2,50.0,29.14,SW,233,3.0,-999.0,97,-99.99,,,0.38,weatherlink.com 1.10,2013-01-30 17:36:00,
2013-01-30 12:49:00,51.2,50.0,29.14,WSW,248,9.0,-999.0,97,-99.99,,,0.38,weatherlink.com 1.10,2013-01-30 17:49:00,
2013-01-30 13:04:00,51.5,51.0,29.11,SW,231,0.0,-999.0,97,-99.99,,,0.38,weatherlink.com 1.10,2013-01-30 18:04:00,
2013-01-30 13:19:00,51.8,51.0,29.09,WSW,239,0.0,-999.0,96,-99.99,,,0.38,weatherlink.com 1.10,2013-01-30 18:19:00,
2013-01-30 13:34:00,51.7,51.0,29.09,SSW,213,3.0,-999.0,96,-99.99,,,0.38,weatherlink.com 1.10,2013-01-30 18:34:00,
2013-01-30 13:49:00,51.7,50.0,29.10,SW,229,0.0,-999.0,95,-99.99,,,0.38,weatherlink.com 1.10,2013-01-30 18:49:00,
2013-01-30 14:04:00,51.8,50.0,29.09,South,180,0.0,-999.0,93,-99.99,,,0.38,weatherlink.com 1.10,2013-01-30 19:04:00,
2013-01-30 14:19:00,51.5,49.0,29.10,SSW,194,4.0,-999.0,92,-99.99,,,0.38,weatherlink.com 1.10,2013-01-30 19:19:00,
2013-01-30 14:34:00,51.2,49.0,29.11,SSW,203,5.0,-999.0,91,-99.99,,,0.38,weatherlink.com 1.10,2013-01-30 19:34:00,
2013-01-30 14:49:00,51.1,49.0,29.08,SW,230,0.0,-999.0,92,-99.99,,,0.38,weatherlink.com 1.10,2013-01-30 19:49:00,
2013-01-30 15:04:00,50.6,48.0,29.07,SSE,168,2.0,-999.0,92,-99.99,,,0.38,weatherlink.com 1.10,2013-01-30 20:04:00,
2013-01-30 15:19:00,50.6,49.0,29.05,SW,218,5.0,-999.0,93,-99.99,,,0.38,weatherlink.com 1.10,2013-01-30 20:19:00,
2013-01-30 15:34:00,50.5,49.0,29.08,South,174,4.0,-999.0,93,-99.99,,,0.38,weatherlink.com 1.10,2013-01-30 20:34:00,
2013-01-30 15:49:00,50.3,48.0,29.06,SSW,209,2.0,-999.0,93,-99.99,,,0.38,weatherlink.com 1.10,2013-01-30 20:49:00,
2013-01-30 16:04:00,50.2,48.0,29.03,SW,220,0.0,-999.0,93,-99.99,,,0.38,weatherlink.com 1.10,2013-01-30 21:04:00,
2013-01-30 16:19:00,50.2,49.0,29.05,SW,228,2.0,-999.0,94,-99.99,,,0.38,weatherlink.com 1.10,2013-01-30 21:19:00,
2013-01-30 16:34:00,50.2,49.0,29.06,WSW,243,4.0,-999.0,94,-99.99,,,0.38,weatherlink.com 1.10,2013-01-30 21:34:00,
2013-01-30 16:49:00,50.1,49.0,29.05,SW,229,3.0,-999.0,94,-99.99,,,0.38,weatherlink.com 1.10,2013-01-30 21:49:00,
2013-01-30 17:04:00,50.1,49.0,29.05,West,264,5.0,-999.0,94,-99.99,,,0.38,weatherlink.com 1.10,2013-01-30 22:04:00,
2013-01-30 17:19:00,50.1,48.0,29.04,WSW,252,2.0,-999.0,92,-99.99,,,0.38,weatherlink.com 1.10,2013-01-30 22:19:00,
2013-01-30 17:34:00,49.9,48.0,29.03,South,179,2.0,-999.0,92,-99.99,,,0.38,weatherlink.com 1.10,2013-01-30 22:34:00,
2013-01-30 17:49:00,49.6,47.0,29.02,South,172,3.0,-999.0,91,-99.99,,,0.38,weatherlink.com 1.10,2013-01-30 22:49:00,
2013-01-30 18:04:00,49.5,47.0,29.02,South,181,3.0,-999.0,90,-99.99,,,0.38,weatherlink.com 1.10,2013-01-30 23:04:00,
2013-01-30 18:19:00,49.6,47.0,29.01,South,174,4.0,-999.0,89,-99.99,,,0.38,weatherlink.com 1.10,2013-01-30 23:19:00,
2013-01-30 18:34:00,49.5,46.0,29.00,SW,233,6.0,-999.0,89,-99.99,,,0.38,weatherlink.com 1.10,2013-01-30 23:34:00,
2013-01-30 18:49:00,46.4,43.0,29.02,West,269,7.0,-999.0,86,-99.99,,,0.42,weatherlink.com 1.10,2013-01-30 23:49:00,
2013-01-30 19:04:00,44.8,41.0,29.03,West,261,13.0,-999.0,87,-99.99,,,0.43,weatherlink.com 1.10,2013-01-31 00:04:00,
2013-01-30 19:19:00,44.2,41.0,29.04,WSW,248,10.0,-999.0,88,-99.99,,,0.44,weatherlink.com 1.10,2013-01-31 00:19:00,
2013-01-30 19:34:00,43.5,40.0,29.03,West,262,6.0,-999.0,87,-99.99,,,0.45,weatherlink.com 1.10,2013-01-31 00:34:00,
2013-01-30 19:49:00,43.0,40.0,29.03,West,259,4.0,-999.0,88,-99.99,,,0.45,weatherlink.com 1.10,2013-01-31 00:49:00,
2013-01-30 20:04:00,42.6,40.0,29.02,West,264,5.0,-999.0,89,-99.99,,,0.45,weatherlink.com 1.10,2013-01-31 01:04:00,
2013-01-30 20:19:00,42.5,40.0,29.02,West,264,12.0,-999.0,89,-99.99,,,0.46,weatherlink.com 1.10,2013-01-31 01:19:00,
2013-01-30 20:34:00,42.0,39.0,29.03,WSW,237,10.0,-999.0,89,-99.99,,,0.46,weatherlink.com 1.10,2013-01-31 01:34:00,
2013-01-30 20:49:00,41.5,39.0,29.03,West,275,5.0,-999.0,89,-99.99,,,0.46,weatherlink.com 1.10,2013-01-31 01:49:00,
2013-01-30 21:04:00,40.8,37.0,29.01,WSW,254,6.0,-999.0,87,-99.99,,,0.47,weatherlink.com 1.10,2013-01-31 02:04:00,
2013-01-30 21:19:00,40.0,37.0,29.03,WSW,242,4.0,-999.0,87,-99.99,,,0.47,weatherlink.com 1.10,2013-01-31 02:19:00,
2013-01-30 21:34:00,39.5,36.0,29.03,WSW,258,7.0,-999.0,88,-99.99,,,0.47,weatherlink.com 1.10,2013-01-31 02:34:00,
2013-01-30 21:49:00,38.7,36.0,29.03,WSW,257,11.0,-999.0,89,-99.99,,,0.47,weatherlink.com 1.10,2013-01-31 02:49:00,
2013-01-30 22:04:00,38.0,35.0,29.03,WSW,252,7.0,-999.0,90,-99.99,,,0.48,weatherlink.com 1.10,2013-01-31 03:04:00,
2013-01-30 22:19:00,37.0,35.0,29.05,WSW,256,9.0,-999.0,91,-99.99,,,0.49,weatherlink.com 1.10,2013-01-31 03:19:00,
2013-01-30 22:34:00,35.9,33.0,29.05,WSW,252,7.0,-999.0,90,-99.99,,,0.50,weatherlink.com 1.10,2013-01-31 03:34:00,
2013-01-30 22:49:00,35.3,32.0,29.05,WNW,283,10.0,-999.0,88,-99.99,,,0.50,weatherlink.com 1.10,2013-01-31 03:49:00,
2013-01-30 23:04:00,33.5,30.0,29.08,WNW,300,11.0,-999.0,87,-99.99,,,0.50,weatherlink.com 1.10,2013-01-31 04:04:00,
2013-01-30 23:19:00,32.9,29.0,29.09,West,259,3.0,-999.0,86,-99.99,,,0.50,weatherlink.com 1.10,2013-01-31 04:19:00,
2013-01-30 23:34:00,32.3,29.0,29.10,WNW,290,16.0,-999.0,86,-99.99,,,0.50,weatherlink.com 1.10,2013-01-31 04:34:00,
2013-01-30 23:49:00,31.7,27.0,29.10,WNW,283,12.0,-999.0,84,-99.99,,,0.50,weatherlink.com 1.10,2013-01-31 04:49:00,